Regional Weather Roundup
Issued by NWS New Orleans/Baton Rouge, LA

Home | Current Version | Previous Version | Text Only | Print | Product List | Glossary Off
Versions: 1 2 3 4 5 6 7 8 9 10 11 12 13 14 15 16 17 18 19 20 21 22 23 24 25 26 27 28 29 30 31 32 33 34 35 36 37 38 39 40 41 42 43 44 45 46 47 48 49 50

541
ASUS44 KLIX 011305
RWRLIX
NEW ORLEANS REGIONAL WEATHER ROUNDUP
NATIONAL WEATHER SERVICE NEW ORLEANS LA
700 AM CST SUN MAR 01 2015

NOTE: "FAIR" INDICATES FEW OR NO CLOUDS BELOW 12,000 FEET WITH NO
      SIGNIFICANT WEATHER AND/OR OBSTRUCTIONS TO VISIBILITY.
      SKY/WX - SKY CONDITION AND SIGNIFICANT WEATHER.
      TMP - AIR TEMPERATURE.     DP    - DEWPOINT TEMPERATURE.
      RH  - RELATIVE HUMIDITY.   PRES  - PRESSURE.
      HI  - HEAT INDEX.          WCI   - WIND CHILL INDEX.

*  THESE STATIONS ARE NOT NWS OR FAA STATIONS AND ARE NOT UNDER
   NWS QUALITY CONTROL.

LAZ038-040-048-061>063-065>067-069-011400-
SOUTHEAST LOUISIANA

CITY           SKY/WX    TMP DP  RH WIND       PRES   REMARKS
N.O. AUDUBON     N/A     56  56 100 MISG        N/A
N.O. INTL ARPT DRZL/FOG  56  55  97 E9        30.31R VSB 1/4
N.O. LAKEFRONT FOG       56  53  90 E10       30.32R VSB 1/4
SLIDELL        FOG       54  53  97 E6        30.32R VSB 3/4
BATON ROUGE    CLOUDY    56  55  97 E12       30.28F FOG
BOOTHVILLE     CLOUDY    61  60  97 E7        30.30F
BELLE CHASSE   FOG       59  57  93 E8        30.30R VSB 1/2
BOGALUSA*        N/A     57  53  87 SE3       30.34S
GALLIANO*      CLOUDY    54  53  98 E3        30.29R
NEW ROADS*     CLOUDY    56  55  97 E10       30.28S FOG
GONZALES*      LGT RAIN  55  55 100 E6        30.29S
HAMMOND*       CLOUDY    55  54  94 SE6       30.33R FOG
HOUMA*         CLOUDY    61  61 100 E9        30.29R FOG
PORT FOURCHON* MOSUNNY   63  61  94 E10       30.31R FOG

$$

MSZ070-080>082-011400-
SOUTHERN MISSISSIPPI

CITY           SKY/WX    TMP DP  RH WIND       PRES   REMARKS
MCCOMB         CLOUDY    55  53  93 SE7       30.31S FOG
GULFPORT       FOG       53  52  96 E9        30.34R VSB 1
BILOXI         CLOUDY    53  53 100 E9        30.34R FOG
PASCAGOULA     FOG       51  50  96 E7        30.36S VSB 1
STENNIS ARPT*  CLOUDY    54  50  87 E6        30.34  FOG

$$

COASTAL OBSERVATIONS
LAKE AND NEARSHORE STATIONS

STATION/POSITION TIME  TEMP    WIND        PRES    WAVE
                       AIR SEA DIR/SP/G            HT/PER
                 (UTC) (F)     (DEG/KT/KT) (MB)    (FT/S)
PASCAGOULA       1300   52      60/ 12/ 16 1027.4
WAVELAND YACHT   1300   52 52  110/ 12/ 16 1026.8
GRAND ISLE       1300   60 57  100/  6/ 11 1025.7
SOUTHWEST PASS   1300           80/ 16/ 17 1025.8
NEW CANAL        1300   55      80/  7/ 12 1026.6
SHELL BEACH      1300   55 53   70/ 13/ 14 1026.3

OFFSHORE STATIONS

STATION/POSITION TIME  TEMP    WIND        PRES    WAVE
                       AIR SEA DIR/SP/G            HT/PER
                 (UTC) (F)     (DEG/KT/KT) (MB)    (FT/S)
64 S DAUPHIN ISL 1233   66 71  110/ 21/ 25 1026.1    7/ 8

$$




USA.gov is the U.S. government's official web portal to all federal, state and local government web resources and services.